Location: Fennell Observatory
(35.2597°N, 89.5125°W)
Time: 14:41:44
(UTC-05:00)

Daily predictions for brighter satellites

Satellite Brightness Start Highest point End
(mag) Time Altitude Azimuth Time Altitude Azimuth Time Altitude Azimuth
NOSS 3-3 (A) 4.5 19:52:59 10° S 19:58:13 34° ESE 20:03:48 10° NE
OAO 2 Rocket 3.4 19:53:53 10° W 19:59:08 89° S 20:04:16 10° E
YAOGAN 6 4.0 20:02:36 10° ESE 20:05:19 21° ENE 20:08:03 10° NNE
H-2A R/B 4.0 20:02:41 10° S 20:06:13 42° W 20:09:47 10° NNW
Cosmos 494 Rocket 4.2 20:02:16 10° N 20:07:20 51° ENE 20:12:25 10° SE
Cosmos 1340 3.1 20:09:42 10° SSE 20:13:16 41° E 20:16:51 10° NNE
Sich 1 3.9 20:10:27 10° NNE 20:14:10 28° ENE 20:17:51 10° SE
In-Cosmos 22 Rocket 4.3 20:09:22 10° N 20:14:42 52° ENE 20:19:54 10° SSE
Cosmos 2237 4.5 20:11:22 10° SSW 20:17:02 75° WNW 20:22:45 10° NNE
Cosmos 2251 Rocket 4.3 20:13:36 10° N 20:18:31 35° ENE 20:23:05 12° SE
Cosmos 1939 Rocket 3.7 20:16:13 10° SE 20:19:38 31° ENE 20:23:04 10° N
Cosmos 2322 4.2 20:14:41 10° SSW 20:20:16 66° WNW 20:25:56 10° NNE
SJ-6B 2.8 20:16:23 10° SSE 20:20:27 79° ENE 20:24:28 10° N
Envisat 3.0 20:18:48 10° SSE 20:23:51 79° ENE 20:28:57 10° N
Cosmos 1633 Rocket 3.7 20:29:01 10° NNE 20:33:00 35° E 20:35:51 17° SE
Cosmos 2228 Rocket 4.3 20:32:02 17° ESE 20:33:55 22° E 20:37:20 10° NE
Cosmos 1437 4.5 20:33:05 10° SSW 20:36:02 35° WNW 20:39:00 10° N
SL-8 R/B 4.0 20:31:52 10° SSW 20:36:22 43° SE 20:40:55 10° ENE
SL-24 R/B - RUBIN 2 4.0 20:36:03 10° NNW 20:40:12 43° ENE 20:42:34 23° ESE
Thor Agena Rocket 3.9 20:41:34 10° N 20:46:47 72° WNW 20:52:02 10° SSW
Cosmos 2154 Rocket 4.0 20:40:59 10° S 20:47:15 89° E 20:53:32 10° N
GEOS 3 Rocket 4.3 20:48:30 10° NE 20:53:07 30° ESE 20:57:37 10° S
Meteor 2-2 Rocket 4.3 20:47:51 10° S 20:53:39 88° W 20:59:37 10° N
Resurs 01 Rocket 1.5 20:52:33 17° SSE 20:56:00 80° ENE 21:00:27 10° N
Cosmos 1980 3.9 20:51:06 10° S 20:56:30 47° ESE 21:01:55 10° NE
Cosmos 1805 Rocket 4.3 20:52:17 10° NNW 20:56:31 53° W 21:00:43 10° S
Meteor 1-27 4.2 20:50:58 10° S 20:56:42 70° E 21:02:22 10° NNE
GPS 2-05 Rocket1 4.0 20:54:52 10° W 20:57:51 28° SSW 20:58:35 26° S
ATLAS 3B CENTAUR R/B 4.2 20:46:52 10° W 20:58:26 29° SW 21:03:20 13° SSE
Sakura Rocket 3.8 20:55:49 10° SW 20:59:35 28° S 20:59:59 27° SSE
Cosmos 1328 Rocket 3.4 20:56:07 10° S 21:00:29 72° E 21:04:54 10° N
Cosmos 2333 Rocket 2.1 20:57:01 10° SSW 21:02:41 89° ESE 21:08:22 10° NNE
Spot 2 Rocket 3.4 21:03:43 23° SSE 21:06:57 77° ENE 21:12:04 10° N
Cosmos 2341 Rocket 4.0 21:01:08 10° S 21:07:31 86° E 21:13:53 10° N
COSMOS 2428 3.8 21:02:32 10° SW 21:08:02 47° WNW 21:13:33 10° N
Meteor 2-10 Rocket 4.5 21:11:14 31° E 21:11:30 31° E 21:16:31 10° NNE
Cosmos 1455 2.4 21:08:03 10° SSW 21:11:50 68° W 21:15:40 10° N
Cosmos 1470 Rocket 3.7 21:09:52 10° N 21:14:11 53° E 21:14:52 48° ESE
SJ-11-01 4.3 21:11:43 23° S 21:14:38 77° W 21:19:18 10° NNW
ATLAS 2AS CENTAUR R/B 3.1 21:07:22 10° NNW 21:15:04 55° NE 21:18:17 33° ESE
Cosmos 2218 Rocket 4.2 21:11:56 25° SSE 21:15:30 52° E 21:21:40 10° NNE
Aureole 2 4.2 21:17:38 70° NNW 21:17:38 70° NNW 21:20:22 10° NNE
ERS-2 4.3 21:14:44 10° SSW 21:17:42 24° W 21:20:43 10° NW
Cosmos 1844 Rocket 3.0 21:13:42 10° NNW 21:19:19 64° WSW 21:22:48 23° S
Cosmos 1844 3.7 21:13:58 10° NNW 21:19:42 84° WSW 21:22:30 32° SSE
Cosmos 1892 3.6 21:16:57 10° NNW 21:20:42 48° W 21:22:50 23° SSW
ATLAS 2A CENTAUR R/B 4.2 21:04:46 10° SW 21:21:26 36° S 21:24:57 30° SE
Cosmos 2237 Rocket 2.0 21:18:47 10° SSW 21:24:23 77° ESE 21:30:01 10° NNE
Cosmos 2219 Rocket 3.1 21:20:00 10° SW 21:25:28 48° WNW 21:30:56 10° N
Cosmos 1408 3.4 21:22:37 10° N 21:25:16 39° NE 21:25:16 39° NE
USA 186 4.3 21:26:57 10° WSW 21:27:24 11° W 21:27:57 10° W
ATLAS CENTAUR R/B 2.1 21:24:04 10° SW 21:27:35 46° WNW 21:31:14 10° NNE
Cosmos 2366 rocket 3.9 21:27:19 36° SSE 21:29:49 62° E 21:35:59 10° NNE
MetOp-A 4.2 21:33:30 52° E 21:34:08 55° ENE 21:39:21 10° N
NOSS 0 Rocket 4.1 21:28:09 10° SSW 21:34:17 72° WNW 21:40:29 10° NNE
Genesis I 3.9 21:32:35 10° NNW 21:35:58 46° NNE 21:35:58 46° NNE
Cosmos 2278 Rocket 2.3 21:31:07 10° NNW 21:36:42 56° ENE 21:37:23 52° E
NOAA 11 4.5 21:35:17 29° S 21:38:04 65° WSW 21:43:34 10° NNW
H-2A R/B 2.4 21:39:07 45° ENE 21:39:07 45° ENE 21:43:38 10° N
SL-8 Rocket 4.0 21:34:29 14° S 21:40:04 81° W 21:46:24 10° N
Cosmos 1933 Rocket 3.5 21:38:36 10° N 21:42:57 84° WNW 21:42:57 84° WNW
OAO 2 Rocket 3.3 21:38:48 10° W 21:43:55 64° SSW 21:43:55 64° SSW
ERS-1 Rocket 3.4 21:50:18 49° NE 21:50:18 49° NE 21:54:34 10° N
Cosmos 1371 Rocket 3.9 21:50:10 61° SSW 21:51:09 90° WSW 21:56:32 10° NNE
Cosmos 1339 Rocket 4.3 21:45:30 10° N 21:51:34 66° E 21:52:00 64° ESE
Cosmos 1151 Rocket 4.1 21:50:12 28° SW 21:51:53 41° W 21:55:56 10° N
USA 267 3.1 21:51:43 10° NE 21:58:16 82° SE 22:04:49 10° SW
Cosmos 1825 3.7 22:00:51 10° NNW 22:03:17 34° NW 22:03:17 34° NW
Cosmos 2344 3.9 22:10:53 47° ENE 22:10:53 47° ENE 22:16:59 10° NE
Cosmos 2098 Rocket 3.9 22:11:35 52° WNW 22:11:35 52° WNW 22:15:32 10° N
Cosmos 2056 Rocket 3.7 22:13:05 72° NW 22:13:05 72° NW 22:18:19 10° NNE
SL-16 R/B 3.0 22:15:04 41° NNE 22:15:04 41° NNE 22:18:42 10° NNE
ARGOS 3.9 22:26:04 47° W 22:26:04 47° W 22:31:09 10° NNW
Cosmos 2369 Rocket 4.4 22:53:11 10° N 22:55:14 17° NNE 22:55:14 17° NNE
Terra 4.0 23:00:47 22° N 23:00:47 22° N 23:02:26 10° N
ATLAS 2AS CENTAUR R/B 4.1 22:59:15 10° NW 23:05:31 29° WSW 23:05:45 28° WSW
H-2A R/B 4.4 23:19:45 16° WNW 23:19:45 16° WNW 23:21:45 10° NW
Cosmos 2278 Rocket 4.5 23:16:45 10° WNW 23:19:15 16° W 23:19:15 16° W
ATLAS 5 CENTAUR R/B 4.3 23:28:12 10° N 23:31:11 22° NNE 23:31:11 22° NNE
